Torna al catalogo

STARLINK-3878

AttivoComunicazioniVLEO
NORAD 52479·PAYLOAD·🇺🇸 United States

Lanciato May 6, 2022 da Cape Canaveral Space Force Station

Loading…

Prossimi Passaggi (prossime 24 ore)

TLE

AggiornatoSource: CelesTrak SupGP

Epoca: Sep 14, 2026, 20:32 UTC

1 52479C 22049AE  26257.85604167  .00029147  00000+0  93758-3 0  2577
2 52479  53.1583 276.1609 0001081  84.0826 230.7092 15.31677757    16

Traccia STARLINK-3878 in tempo reale con AllMySat

Download on the App Store